Time,TemperatureF,DewpointF,PressureIn,WindDirection,WindDirectionDegrees,WindSpeedMPH,WindSpeedGustMPH,Humidity,HourlyPrecipIn,Conditions,Clouds,dailyrainin,SoftwareType,DateUTC
2013-01-16 00:06:00,60.5,57.9,30.02,SW,232,11.0,13.0,91,0.00,,,0.00,Wunderground v.1.15,2013-01-15 22:06:00,
2013-01-16 00:20:00,60.3,58.0,30.02,WNW,298,10.0,10.0,92,0.00,,,0.00,Wunderground v.1.15,2013-01-15 22:20:00,
2013-01-16 00:25:00,60.2,57.9,30.02,WNW,296,10.0,10.0,92,0.00,,,0.00,Wunderground v.1.15,2013-01-15 22:25:00,
2013-01-16 00:35:00,60.1,57.5,30.02,WSW,245,11.0,16.0,91,0.00,,,0.00,Wunderground v.1.15,2013-01-15 22:35:00,
2013-01-16 00:40:00,60.1,57.5,30.02,WNW,294,13.0,16.0,91,0.00,,,0.00,Wunderground v.1.15,2013-01-15 22:40:00,
2013-01-16 00:50:00,60.4,57.5,30.01,WNW,296,16.0,19.0,90,0.00,,,0.00,Wunderground v.1.15,2013-01-15 22:50:00,
2013-01-16 00:55:00,60.5,57.2,30.01,NW,312,17.0,19.0,89,0.00,,,0.00,Wunderground v.1.15,2013-01-15 22:55:00,
2013-01-16 01:01:00,60.5,56.9,30.01,WNW,296,15.0,15.0,88,0.00,,,0.00,Wunderground v.1.15,2013-01-15 23:01:00,
2013-01-16 01:10:00,60.6,57.0,30.00,WNW,292,14.0,15.0,88,0.00,,,0.00,Wunderground v.1.15,2013-01-15 23:10:00,
2013-01-16 01:20:00,60.5,57.2,30.00,WNW,295,15.0,15.0,89,0.00,,,0.00,Wunderground v.1.15,2013-01-15 23:20:00,
2013-01-16 01:25:00,60.5,56.9,30.00,WNW,283,16.0,20.0,88,0.00,,,0.00,Wunderground v.1.15,2013-01-15 23:25:00,
2013-01-16 01:35:00,60.9,57.3,30.00,West,276,19.0,19.0,88,0.00,,,0.00,Wunderground v.1.15,2013-01-15 23:35:00,
2013-01-16 01:40:00,60.9,57.0,29.99,WNW,290,17.0,19.0,87,0.00,,,0.00,Wunderground v.1.15,2013-01-15 23:40:00,
2013-01-16 01:46:00,60.8,56.6,29.99,WNW,296,19.0,23.0,86,0.00,,,0.00,Wunderground v.1.15,2013-01-15 23:46:00,
2013-01-16 01:55:00,61.2,57.0,29.99,West,270,21.0,27.0,86,0.00,,,0.00,Wunderground v.1.15,2013-01-15 23:55:00,
2013-01-16 02:01:00,61.2,57.0,29.99,NW,308,21.0,27.0,86,0.00,,,0.00,Wunderground v.1.15,2013-01-16 00:01:00,
2013-01-16 02:10:00,61.3,57.1,29.99,WNW,283,20.0,27.0,86,0.00,,,0.00,Wunderground v.1.15,2013-01-16 00:10:00,
2013-01-16 02:16:00,61.2,57.3,29.98,WNW,292,18.0,20.0,87,0.00,,,0.00,Wunderground v.1.15,2013-01-16 00:16:00,
2013-01-16 02:25:00,61.0,57.1,29.98,WNW,285,18.0,21.0,87,0.00,,,0.00,Wunderground v.1.15,2013-01-16 00:25:00,
2013-01-16 02:31:00,61.1,57.2,29.98,WSW,253,19.0,25.0,87,0.00,,,0.00,Wunderground v.1.15,2013-01-16 00:31:00,
2013-01-16 02:40:00,61.1,56.9,29.97,WNW,291,19.0,20.0,86,0.00,,,0.00,Wunderground v.1.15,2013-01-16 00:40:00,
2013-01-16 02:50:00,61.1,56.9,29.97,WNW,288,19.0,19.0,86,0.00,,,0.00,Wunderground v.1.15,2013-01-16 00:50:00,
2013-01-16 02:55:00,61.1,56.9,29.97,West,268,18.0,19.0,86,0.00,,,0.00,Wunderground v.1.15,2013-01-16 00:55:00,
2013-01-16 03:05:00,61.1,57.2,29.97,West,260,17.0,20.0,87,0.00,,,0.00,Wunderground v.1.15,2013-01-16 01:05:00,
2013-01-16 03:10:00,61.1,56.9,29.97,WNW,302,20.0,20.0,86,0.00,,,0.00,Wunderground v.1.15,2013-01-16 01:10:00,
2013-01-16 03:20:00,61.2,57.3,29.96,WNW,286,17.0,22.0,87,0.00,,,0.00,Wunderground v.1.15,2013-01-16 01:20:00,
2013-01-16 03:31:00,60.9,56.4,29.95,WSW,251,18.0,18.0,85,0.00,,,0.00,Wunderground v.1.15,2013-01-16 01:31:00,
2013-01-16 03:40:00,61.2,56.7,29.95,WNW,288,18.0,18.0,85,0.00,,,0.00,Wunderground v.1.15,2013-01-16 01:40:00,
2013-01-16 03:46:00,61.1,56.6,29.94,WNW,282,16.0,16.0,85,0.00,,,0.00,Wunderground v.1.15,2013-01-16 01:46:00,
2013-01-16 03:55:00,61.0,56.5,29.93,WNW,282,16.0,19.0,85,0.00,,,0.00,Wunderground v.1.15,2013-01-16 01:55:00,
2013-01-16 04:05:00,60.9,56.4,29.93,West,279,17.0,33.0,85,0.00,,,0.00,Wunderground v.1.15,2013-01-16 02:05:00,
2013-01-16 04:10:00,60.9,56.0,29.93,WNW,295,17.0,17.0,84,0.00,,,0.00,Wunderground v.1.15,2013-01-16 02:10:00,
2013-01-16 04:20:00,61.0,55.8,29.92,WNW,292,19.0,19.0,83,0.00,,,0.00,Wunderground v.1.15,2013-01-16 02:20:00,
2013-01-16 04:25:00,61.1,55.9,29.92,WNW,285,20.0,20.0,83,0.00,,,0.00,Wunderground v.1.15,2013-01-16 02:25:00,
2013-01-16 04:31:00,61.2,56.0,29.91,WNW,286,19.0,21.0,83,0.00,,,0.00,Wunderground v.1.15,2013-01-16 02:31:00,
2013-01-16 04:40:00,61.2,56.3,29.91,WNW,284,19.0,24.0,84,0.00,,,0.00,Wunderground v.1.15,2013-01-16 02:40:00,
2013-01-16 04:46:00,61.1,56.2,29.91,WNW,299,20.0,20.0,84,0.00,,,0.00,Wunderground v.1.15,2013-01-16 02:46:00,
2013-01-16 04:55:00,61.0,56.1,29.91,West,273,17.0,18.0,84,0.00,,,0.00,Wunderground v.1.15,2013-01-16 02:55:00,
2013-01-16 05:01:00,61.1,56.6,29.90,WNW,299,16.0,16.0,85,0.00,,,0.00,Wunderground v.1.15,2013-01-16 03:01:00,
2013-01-16 05:10:00,61.1,56.2,29.91,WNW,299,16.0,22.0,84,0.00,,,0.00,Wunderground v.1.15,2013-01-16 03:10:00,
2013-01-16 05:20:00,61.2,56.3,29.90,NW,309,17.0,17.0,84,0.00,,,0.00,Wunderground v.1.15,2013-01-16 03:20:00,
2013-01-16 05:25:00,61.3,56.4,29.90,West,265,19.0,19.0,84,0.00,,,0.00,Wunderground v.1.15,2013-01-16 03:25:00,
2013-01-16 05:31:00,61.3,56.4,29.89,West,281,21.0,22.0,84,0.00,,,0.00,Wunderground v.1.15,2013-01-16 03:31:00,
2013-01-16 05:40:00,61.3,56.4,29.89,NW,306,22.0,22.0,84,0.00,,,0.00,Wunderground v.1.15,2013-01-16 03:40:00,
2013-01-16 05:46:00,61.3,56.4,29.88,West,279,23.0,25.0,84,0.00,,,0.00,Wunderground v.1.15,2013-01-16 03:46:00,
2013-01-16 05:55:00,61.3,56.4,29.88,WNW,291,25.0,27.0,84,0.00,,,0.00,Wunderground v.1.15,2013-01-16 03:55:00,
2013-01-16 06:01:00,61.4,56.2,29.88,West,277,27.0,27.0,83,0.00,,,0.00,Wunderground v.1.15,2013-01-16 04:01:00,
2013-01-16 06:10:00,61.5,56.6,29.89,West,280,23.0,23.0,84,0.00,,,0.00,Wunderground v.1.15,2013-01-16 04:10:00,
2013-01-16 06:16:00,61.4,56.5,29.89,WNW,286,22.0,23.0,84,0.00,,,0.00,Wunderground v.1.15,2013-01-16 04:16:00,
2013-01-16 06:25:00,61.5,56.9,29.89,WNW,284,21.0,25.0,85,0.00,,,0.00,Wunderground v.1.15,2013-01-16 04:25:00,
2013-01-16 06:31:00,61.4,56.8,29.88,West,260,21.0,29.0,85,0.00,,,0.00,Wunderground v.1.15,2013-01-16 04:31:00,
2013-01-16 06:40:00,61.5,56.9,29.88,WNW,288,24.0,33.0,85,0.00,,,0.00,Wunderground v.1.15,2013-01-16 04:40:00,
2013-01-16 06:50:00,61.5,57.3,29.88,WNW,287,22.0,22.0,86,0.00,,,0.00,Wunderground v.1.15,2013-01-16 04:50:00,
2013-01-16 06:55:00,61.5,57.3,29.88,West,271,21.0,22.0,86,0.00,,,0.00,Wunderground v.1.15,2013-01-16 04:55:00,
2013-01-16 07:05:00,61.4,57.5,29.88,West,269,20.0,21.0,87,0.00,,,0.00,Wunderground v.1.15,2013-01-16 05:05:00,
2013-01-16 07:10:00,61.4,57.5,29.88,West,269,19.0,21.0,87,0.00,,,0.00,Wunderground v.1.15,2013-01-16 05:10:00,
2013-01-16 07:20:00,61.3,57.4,29.88,WNW,292,18.0,18.0,87,0.00,,,0.00,Wunderground v.1.15,2013-01-16 05:20:00,
2013-01-16 07:25:00,61.3,57.7,29.87,West,277,18.0,18.0,88,0.00,,,0.00,Wunderground v.1.15,2013-01-16 05:25:00,
2013-01-16 07:35:00,61.3,57.7,29.87,West,277,21.0,21.0,88,0.00,,,0.00,Wunderground v.1.15,2013-01-16 05:35:00,
2013-01-16 07:40:00,61.3,57.7,29.88,West,267,20.0,38.0,88,0.00,,,0.00,Wunderground v.1.15,2013-01-16 05:40:00,
2013-01-16 07:50:00,61.3,57.7,29.87,NW,315,21.0,21.0,88,0.00,,,0.00,Wunderground v.1.15,2013-01-16 05:50:00,
2013-01-16 08:05:00,61.5,57.9,29.86,WNW,284,24.0,32.0,88,0.00,,,0.00,Wunderground v.1.15,2013-01-16 06:05:00,
2013-01-16 08:10:00,61.5,57.9,29.87,West,266,26.0,32.0,88,0.00,,,0.00,Wunderground v.1.15,2013-01-16 06:10:00,
2013-01-16 08:16:00,61.5,57.6,29.86,WNW,286,26.0,28.0,87,0.00,,,0.00,Wunderground v.1.15,2013-01-16 06:16:00,
2013-01-16 08:25:00,61.6,57.7,29.87,West,281,27.0,27.0,87,0.00,,,0.00,Wunderground v.1.15,2013-01-16 06:25:00,
2013-01-16 08:31:00,61.6,57.7,29.87,WNW,296,26.0,33.0,87,0.00,,,0.00,Wunderground v.1.15,2013-01-16 06:31:00,
2013-01-16 08:40:00,61.6,57.7,29.88,WNW,301,27.0,31.0,87,0.00,,,0.00,Wunderground v.1.15,2013-01-16 06:40:00,
2013-01-16 08:46:00,61.6,57.7,29.89,WNW,285,28.0,33.0,87,0.00,,,0.00,Wunderground v.1.15,2013-01-16 06:46:00,
2013-01-16 08:55:00,57.7,52.9,29.91,NNW,336,17.0,17.0,84,0.00,,,0.00,Wunderground v.1.15,2013-01-16 06:55:00,
2013-01-16 09:05:00,56.4,52.3,29.89,NE,44,11.0,14.0,86,0.00,,,0.00,Wunderground v.1.15,2013-01-16 07:05:00,
2013-01-16 09:10:00,56.0,52.2,29.90,NNW,348,12.0,15.0,87,0.00,,,0.00,Wunderground v.1.15,2013-01-16 07:10:00,
2013-01-16 09:20:00,55.7,52.5,29.91,NNW,336,12.0,13.0,89,0.84,,,0.16,Wunderground v.1.15,2013-01-16 07:20:00,
2013-01-16 09:25:00,55.4,52.5,29.91,NNW,329,10.0,13.0,90,0.79,,,0.23,Wunderground v.1.15,2013-01-16 07:25:00,
2013-01-16 09:35:00,54.9,52.6,29.90,North,349,6.0,6.0,92,0.93,,,0.45,Wunderground v.1.15,2013-01-16 07:35:00,
2013-01-16 09:40:00,54.7,52.4,29.90,NNE,29,5.0,6.0,92,0.73,,,0.50,Wunderground v.1.15,2013-01-16 07:40:00,
2013-01-16 09:46:00,54.6,52.3,29.91,NW,305,4.0,5.0,92,0.58,,,0.55,Wunderground v.1.15,2013-01-16 07:46:00,
2013-01-16 09:55:00,54.6,52.6,29.91,West,281,5.0,5.0,93,0.77,,,0.70,Wunderground v.1.15,2013-01-16 07:55:00,
2013-01-16 10:01:00,54.5,52.5,29.92,WNW,285,5.0,5.0,93,0.69,,,0.76,Wunderground v.1.15,2013-01-16 08:01:00,
2013-01-16 10:10:00,54.1,52.4,29.92,NW,315,7.0,7.0,94,0.76,,,0.88,Wunderground v.1.15,2013-01-16 08:10:00,
2013-01-16 10:20:00,54.2,52.5,29.91,WNW,286,6.0,6.0,94,0.27,,,0.93,Wunderground v.1.15,2013-01-16 08:20:00,
2013-01-16 10:25:00,54.3,52.6,29.90,NW,321,5.0,6.0,94,0.85,,,0.98,Wunderground v.1.15,2013-01-16 08:25:00,
2013-01-16 10:31:00,54.2,52.5,29.90,North,355,5.0,6.0,94,0.45,,,1.02,Wunderground v.1.15,2013-01-16 08:31:00,
2013-01-16 10:40:00,54.1,52.7,29.90,NNW,340,4.0,6.0,95,0.24,,,1.05,Wunderground v.1.15,2013-01-16 08:40:00,
2013-01-16 10:46:00,53.8,52.4,29.89,West,277,3.0,4.0,95,0.34,,,1.06,Wunderground v.1.15,2013-01-16 08:46:00,
2013-01-16 10:55:00,53.8,52.4,29.89,West,261,4.0,7.0,95,0.27,,,1.09,Wunderground v.1.15,2013-01-16 08:55:00,
2013-01-16 11:01:00,53.9,52.5,29.90,WSW,244,6.0,6.0,95,0.20,,,1.12,Wunderground v.1.15,2013-01-16 09:01:00,
2013-01-16 11:10:00,54.0,52.6,29.89,WSW,251,8.0,11.0,95,0.23,,,1.14,Wunderground v.1.15,2013-01-16 09:10:00,
2013-01-16 11:20:00,53.8,52.4,29.89,WSW,253,8.0,8.0,95,0.50,,,1.19,Wunderground v.1.15,2013-01-16 09:20:00,
2013-01-16 11:25:00,53.9,52.8,29.88,West,261,8.0,8.0,96,0.60,,,1.23,Wunderground v.1.15,2013-01-16 09:25:00,
2013-01-16 11:31:00,53.9,52.8,29.88,West,273,7.0,7.0,96,0.39,,,1.27,Wunderground v.1.15,2013-01-16 09:31:00,
2013-01-16 11:40:00,53.8,52.7,29.87,West,259,6.0,9.0,96,0.30,,,1.31,Wunderground v.1.15,2013-01-16 09:40:00,
2013-01-16 11:50:00,53.7,52.6,29.85,SW,218,5.0,9.0,96,0.35,,,1.36,Wunderground v.1.15,2013-01-16 09:50:00,
2013-01-16 11:55:00,53.6,52.5,29.86,West,271,4.0,9.0,96,0.23,,,1.38,Wunderground v.1.15,2013-01-16 09:55:00,
2013-01-16 12:05:00,53.7,52.6,29.85,WSW,247,10.0,14.0,96,0.05,,,1.38,Wunderground v.1.15,2013-01-16 10:05:00,
2013-01-16 12:10:00,53.6,52.5,29.84,WNW,287,10.0,14.0,96,0.04,,,1.38,Wunderground v.1.15,2013-01-16 10:10:00,
2013-01-16 12:20:00,53.8,52.4,29.84,West,263,11.0,11.0,95,0.00,,,1.38,Wunderground v.1.15,2013-01-16 10:20:00,
2013-01-16 12:25:00,53.9,52.5,29.83,West,261,10.0,16.0,95,0.00,,,1.38,Wunderground v.1.15,2013-01-16 10:25:00,
2013-01-16 12:31:00,54.1,52.7,29.82,WSW,252,10.0,10.0,95,0.00,,,1.38,Wunderground v.1.15,2013-01-16 10:31:00,
2013-01-16 12:40:00,54.4,53.0,29.82,West,266,10.0,14.0,95,0.00,,,1.38,Wunderground v.1.15,2013-01-16 10:40:00,
2013-01-16 12:46:00,54.5,53.1,29.82,WSW,248,11.0,11.0,95,0.00,,,1.38,Wunderground v.1.15,2013-01-16 10:46:00,
2013-01-16 12:55:00,54.7,53.3,29.82,WSW,248,11.0,15.0,95,0.00,,,1.38,Wunderground v.1.15,2013-01-16 10:55:00,
2013-01-16 13:01:00,54.8,53.4,29.81,WSW,251,11.0,11.0,95,0.00,,,1.38,Wunderground v.1.15,2013-01-16 11:01:00,
2013-01-16 13:10:00,55.1,53.7,29.81,West,272,9.0,11.0,95,0.00,,,1.38,Wunderground v.1.15,2013-01-16 11:10:00,
2013-01-16 13:20:00,55.4,54.0,29.80,WSW,256,9.0,9.0,95,0.00,,,1.38,Wunderground v.1.15,2013-01-16 11:20:00,
2013-01-16 13:25:00,55.6,53.9,29.80,NW,313,9.0,9.0,94,0.00,,,1.38,Wunderground v.1.15,2013-01-16 11:25:00,
2013-01-16 13:35:00,56.1,54.7,29.79,WSW,241,7.0,7.0,95,0.00,,,1.38,Wunderground v.1.15,2013-01-16 11:35:00,
2013-01-16 13:40:00,56.4,55.0,29.79,WNW,292,7.0,7.0,95,0.00,,,1.38,Wunderground v.1.15,2013-01-16 11:40:00,
2013-01-16 13:50:00,57.4,56.0,29.78,West,267,9.0,11.0,95,0.00,,,1.38,Wunderground v.1.15,2013-01-16 11:50:00,
2013-01-16 14:01:00,57.9,56.2,29.77,WNW,294,9.0,15.0,94,0.00,,,1.38,Wunderground v.1.15,2013-01-16 12:01:00,
2013-01-16 14:10:00,58.4,56.7,29.77,West,281,7.0,7.0,94,0.00,,,1.38,Wunderground v.1.15,2013-01-16 12:10:00,
2013-01-16 14:16:00,58.2,56.2,29.77,WNW,291,8.0,9.0,93,0.00,,,1.38,Wunderground v.1.15,2013-01-16 12:16:00,
2013-01-16 14:25:00,58.1,56.1,29.77,NNW,330,11.0,11.0,93,0.00,,,1.38,Wunderground v.1.15,2013-01-16 12:25:00,
2013-01-16 14:31:00,58.2,56.2,29.77,West,279,12.0,12.0,93,0.00,,,1.38,Wunderground v.1.15,2013-01-16 12:31:00,
2013-01-16 14:40:00,58.6,56.6,29.76,WNW,294,12.0,18.0,93,0.00,,,1.38,Wunderground v.1.15,2013-01-16 12:40:00,
2013-01-16 14:46:00,58.6,56.6,29.76,West,279,12.0,18.0,93,0.00,,,1.38,Wunderground v.1.15,2013-01-16 12:46:00,
2013-01-16 14:55:00,58.9,56.6,29.75,WNW,294,11.0,14.0,92,0.00,,,1.38,Wunderground v.1.15,2013-01-16 12:55:00,
2013-01-16 15:01:00,58.8,56.5,29.75,West,277,11.0,20.0,92,0.00,,,1.38,Wunderground v.1.15,2013-01-16 13:01:00,
2013-01-16 15:10:00,59.0,56.4,29.75,WNW,296,11.0,20.0,91,0.00,,,1.38,Wunderground v.1.15,2013-01-16 13:10:00,
2013-01-16 15:20:00,59.3,56.7,29.75,WNW,292,12.0,16.0,91,0.00,,,1.38,Wunderground v.1.15,2013-01-16 13:20:00,
2013-01-16 15:25:00,59.3,56.4,29.74,WNW,284,14.0,19.0,90,0.00,,,1.38,Wunderground v.1.15,2013-01-16 13:25:00,
2013-01-16 15:35:00,59.6,56.7,29.74,West,273,14.0,23.0,90,0.00,,,1.38,Wunderground v.1.15,2013-01-16 13:35:00,
2013-01-16 15:40:00,59.6,56.4,29.74,WNW,294,17.0,23.0,89,0.00,,,1.38,Wunderground v.1.15,2013-01-16 13:40:00,
2013-01-16 15:50:00,59.6,56.0,29.74,West,268,19.0,19.0,88,0.00,,,1.38,Wunderground v.1.15,2013-01-16 13:50:00,
2013-01-16 15:55:00,59.7,56.1,29.73,WNW,284,19.0,24.0,88,0.00,,,1.38,Wunderground v.1.15,2013-01-16 13:55:00,
2013-01-16 16:05:00,59.9,56.3,29.73,WNW,292,17.0,17.0,88,0.00,,,1.38,Wunderground v.1.15,2013-01-16 14:05:00,
2013-01-16 16:10:00,60.0,56.4,29.74,WNW,292,15.0,17.0,88,0.00,,,1.38,Wunderground v.1.15,2013-01-16 14:10:00,
2013-01-16 16:20:00,60.2,56.6,29.73,WNW,288,14.0,14.0,88,0.00,,,1.38,Wunderground v.1.15,2013-01-16 14:20:00,
2013-01-16 16:25:00,60.4,56.8,29.73,West,268,14.0,14.0,88,0.00,,,1.38,Wunderground v.1.15,2013-01-16 14:25:00,
2013-01-16 16:31:00,60.4,56.8,29.73,West,267,13.0,13.0,88,0.00,,,1.38,Wunderground v.1.15,2013-01-16 14:31:00,
2013-01-16 16:40:00,60.1,56.5,29.72,WNW,284,17.0,17.0,88,0.00,,,1.38,Wunderground v.1.15,2013-01-16 14:40:00,
2013-01-16 16:46:00,60.1,56.5,29.72,WNW,299,18.0,19.0,88,0.00,,,1.38,Wunderground v.1.15,2013-01-16 14:46:00,
2013-01-16 16:55:00,60.2,56.0,29.72,West,275,17.0,18.0,86,0.00,,,1.38,Wunderground v.1.15,2013-01-16 14:55:00,
2013-01-16 17:01:00,60.3,55.8,29.72,WNW,298,16.0,28.0,85,0.00,,,1.38,Wunderground v.1.15,2013-01-16 15:01:00,
2013-01-16 17:10:00,60.5,55.3,29.72,WNW,287,14.0,28.0,83,0.00,,,1.38,Wunderground v.1.15,2013-01-16 15:10:00,
2013-01-16 17:16:00,60.5,54.0,29.72,WNW,297,14.0,15.0,79,0.00,,,1.38,Wunderground v.1.15,2013-01-16 15:16:00,
2013-01-16 17:25:00,60.5,52.9,29.72,NNW,329,13.0,15.0,76,0.00,,,1.38,Wunderground v.1.15,2013-01-16 15:25:00,
2013-01-16 17:31:00,60.3,52.7,29.72,North,355,10.0,10.0,76,0.00,,,1.38,Wunderground v.1.15,2013-01-16 15:31:00,
2013-01-16 17:40:00,59.7,51.4,29.72,North,5,9.0,10.0,74,0.00,,,1.38,Wunderground v.1.15,2013-01-16 15:40:00,
2013-01-16 17:46:00,59.6,51.3,29.72,NW,325,9.0,12.0,74,0.00,,,1.38,Wunderground v.1.15,2013-01-16 15:46:00,
2013-01-16 17:55:00,59.8,51.5,29.72,NNW,339,11.0,16.0,74,0.00,,,1.38,Wunderground v.1.15,2013-01-16 15:55:00,
2013-01-16 18:01:00,59.8,50.8,29.72,NW,323,12.0,12.0,72,0.00,,,1.38,Wunderground v.1.15,2013-01-16 16:01:00,
2013-01-16 18:10:00,59.9,50.5,29.72,NW,313,14.0,29.0,71,0.00,,,1.38,Wunderground v.1.15,2013-01-16 16:10:00,
2013-01-16 18:16:00,60.1,51.4,29.72,NNW,342,11.0,11.0,73,0.00,,,1.38,Wunderground v.1.15,2013-01-16 16:16:00,
2013-01-16 18:25:00,59.8,50.8,29.72,NNW,337,9.0,11.0,72,0.00,,,1.38,Wunderground v.1.15,2013-01-16 16:25:00,
2013-01-16 18:31:00,59.6,49.4,29.73,North,355,12.0,12.0,69,0.00,,,1.38,Wunderground v.1.15,2013-01-16 16:31:00,
2013-01-16 18:40:00,60.0,50.6,29.73,NW,322,11.0,12.0,71,0.00,,,1.38,Wunderground v.1.15,2013-01-16 16:40:00,
2013-01-16 18:46:00,59.9,50.1,29.73,NNW,336,11.0,15.0,70,0.00,,,1.38,Wunderground v.1.15,2013-01-16 16:46:00,
2013-01-16 18:55:00,59.9,50.1,29.72,North,355,14.0,23.0,70,0.00,,,1.38,Wunderground v.1.15,2013-01-16 16:55:00,
2013-01-16 19:01:00,59.9,50.8,29.72,NNW,333,14.0,17.0,72,0.00,,,1.38,Wunderground v.1.15,2013-01-16 17:01:00,
2013-01-16 19:10:00,59.7,50.3,29.71,North,349,13.0,13.0,71,0.00,,,1.38,Wunderground v.1.15,2013-01-16 17:10:00,
2013-01-16 19:20:00,59.5,50.1,29.71,NW,312,8.0,11.0,71,0.00,,,1.38,Wunderground v.1.15,2013-01-16 17:20:00,
2013-01-16 19:25:00,59.4,50.4,29.71,NW,313,10.0,11.0,72,0.00,,,1.38,Wunderground v.1.15,2013-01-16 17:25:00,
2013-01-16 19:35:00,59.2,50.5,29.71,West,279,8.0,8.0,73,0.00,,,1.38,Wunderground v.1.15,2013-01-16 17:35:00,
2013-01-16 19:40:00,59.1,50.5,29.71,North,350,8.0,15.0,73,0.00,,,1.38,Wunderground v.1.15,2013-01-16 17:40:00,
2013-01-16 19:46:00,58.9,50.3,29.71,North,355,10.0,10.0,73,0.00,,,1.38,Wunderground v.1.15,2013-01-16 17:46:00,
2013-01-16 19:55:00,58.8,50.5,29.71,NNW,338,10.0,11.0,74,0.00,,,1.38,Wunderground v.1.15,2013-01-16 17:55:00,
2013-01-16 20:01:00,58.4,50.1,29.71,North,350,8.0,9.0,74,0.00,,,1.38,Wunderground v.1.15,2013-01-16 18:01:00,
2013-01-16 20:10:00,57.8,49.6,29.70,NNW,340,7.0,7.0,74,0.00,,,1.38,Wunderground v.1.15,2013-01-16 18:10:00,
2013-01-16 20:20:00,57.6,49.4,29.71,NW,307,10.0,14.0,74,0.00,,,1.38,Wunderground v.1.15,2013-01-16 18:20:00,
2013-01-16 20:25:00,57.7,49.8,29.70,NW,309,12.0,14.0,75,0.00,,,1.38,Wunderground v.1.15,2013-01-16 18:25:00,
2013-01-16 20:35:00,57.7,49.8,29.71,WNW,297,13.0,13.0,75,0.00,,,1.38,Wunderground v.1.15,2013-01-16 18:35:00,
2013-01-16 20:40:00,57.6,49.0,29.71,NW,314,14.0,18.0,73,0.00,,,1.38,Wunderground v.1.15,2013-01-16 18:40:00,
2013-01-16 20:50:00,57.5,48.5,29.70,WNW,286,15.0,15.0,72,0.00,,,1.38,Wunderground v.1.15,2013-01-16 18:50:00,
2013-01-16 20:55:00,57.5,48.2,29.70,NW,309,14.0,15.0,71,0.00,,,1.38,Wunderground v.1.15,2013-01-16 18:55:00,
2013-01-16 21:05:00,57.5,49.6,29.70,NW,311,14.0,14.0,75,0.00,,,1.38,Wunderground v.1.15,2013-01-16 19:05:00,
2013-01-16 21:10:00,57.4,49.9,29.70,WNW,288,14.0,14.0,76,0.00,,,1.38,Wunderground v.1.15,2013-01-16 19:10:00,
2013-01-16 21:20:00,57.5,50.3,29.69,West,275,16.0,18.0,77,0.00,,,1.38,Wunderground v.1.15,2013-01-16 19:20:00,
2013-01-16 21:25:00,57.6,50.1,29.69,WNW,290,18.0,18.0,76,0.00,,,1.38,Wunderground v.1.15,2013-01-16 19:25:00,
2013-01-16 21:35:00,57.5,49.3,29.69,NW,307,17.0,20.0,74,0.00,,,1.38,Wunderground v.1.15,2013-01-16 19:35:00,
2013-01-16 21:40:00,57.4,49.2,29.69,NW,311,16.0,20.0,74,0.00,,,1.38,Wunderground v.1.15,2013-01-16 19:40:00,
2013-01-16 21:50:00,56.5,48.7,29.68,WNW,283,19.0,20.0,75,0.00,,,1.38,Wunderground v.1.15,2013-01-16 19:50:00,
2013-01-16 22:05:00,56.0,48.5,29.68,WNW,300,19.0,19.0,76,0.00,,,1.38,Wunderground v.1.15,2013-01-16 20:05:00,
2013-01-16 22:10:00,56.0,48.9,29.68,WNW,298,18.0,21.0,77,0.00,,,1.38,Wunderground v.1.15,2013-01-16 20:10:00,
2013-01-16 22:20:00,55.7,48.9,29.69,NW,319,15.0,15.0,78,0.00,,,1.38,Wunderground v.1.15,2013-01-16 20:20:00,
2013-01-16 22:25:00,55.4,48.3,29.69,NW,310,9.0,15.0,77,0.00,,,1.38,Wunderground v.1.15,2013-01-16 20:25:00,
2013-01-16 22:35:00,55.4,48.7,29.69,West,281,10.0,12.0,78,0.00,,,1.38,Wunderground v.1.15,2013-01-16 20:35:00,
2013-01-16 22:40:00,55.4,48.7,29.69,WNW,298,8.0,12.0,78,0.00,,,1.38,Wunderground v.1.15,2013-01-16 20:40:00,
2013-01-16 22:50:00,55.3,48.6,29.69,WNW,288,4.0,5.0,78,0.00,,,1.38,Wunderground v.1.15,2013-01-16 20:50:00,
2013-01-16 22:55:00,55.5,49.1,29.70,North,360,7.0,12.0,79,0.00,,,1.38,Wunderground v.1.15,2013-01-16 20:55:00,
2013-01-16 23:05:00,55.4,49.3,29.69,NNW,327,12.0,12.0,80,0.00,,,1.38,Wunderground v.1.15,2013-01-16 21:05:00,
2013-01-16 23:10:00,55.2,49.5,29.68,NNW,330,9.0,13.0,81,0.00,,,1.38,Wunderground v.1.15,2013-01-16 21:10:00,
2013-01-16 23:20:00,55.0,49.9,29.70,NNW,346,12.0,19.0,83,0.00,,,1.38,Wunderground v.1.15,2013-01-16 21:20:00,
2013-01-16 23:25:00,55.0,49.9,29.70,North,350,13.0,19.0,83,0.00,,,1.38,Wunderground v.1.15,2013-01-16 21:25:00,
2013-01-16 23:35:00,54.8,49.7,29.70,NW,326,12.0,12.0,83,0.00,,,1.38,Wunderground v.1.15,2013-01-16 21:35:00,
2013-01-16 23:40:00,54.5,48.8,29.70,NW,326,12.0,12.0,81,0.00,,,1.38,Wunderground v.1.15,2013-01-16 21:40:00,
2013-01-16 23:50:00,54.6,48.2,29.69,NW,325,17.0,17.0,79,0.00,,,1.38,Wunderground v.1.15,2013-01-16 21:50:00,
2013-01-16 23:55:00,54.8,48.1,29.69,North,360,17.0,21.0,78,0.00,,,1.38,Wunderground v.1.15,2013-01-16 21:55:00,